When you browse on this site, cookies collect data to enhance your experience and personalize the content and advertising you see.
Visit our Privacy Policy to learn more. By continuing to use the site, you agree to this use of cookies and data.
  • In Hungary
  • List of Countries
  • For 7 days
  • Water Temperature
  • Satellite Maps
  • Weather Map
  • News
  • Weather Widgets
  • user-avatar
    Login

    Hourly Weather University Park

    Today, 19 June, Wednesday

    Time Temperature Precipitation Wind Pressure Humidity
    00:00 +29°C° 0 mm 2 mps 762 mmHg 70%
    01:00 +29°C° 0 mm 2 mps 762 mmHg 73%
    02:00 +29°C° 0 mm 2 mps 762 mmHg 74%
    03:00 +29°C° 0 mm 3 mps 761 mmHg 75%
    04:00 +29°C° 0 mm 3 mps 761 mmHg 76%
    05:00 +29°C° 0.7 mm 3 mps 761 mmHg 76%
    06:00 +30°C° 0.7 mm 3 mps 762 mmHg 75%
    07:00 +30°C° 0 mm 3 mps 762 mmHg 75%
    08:00 +31°C° 0.8 mm 3 mps 762 mmHg 68%
    09:00 +33°C° 0.8 mm 3 mps 762 mmHg 61%
    10:00 +34°C° 0.8 mm 4 mps 762 mmHg 55%
    11:00 +35°C° 0 mm 4 mps 762 mmHg 53%
    12:00 +35°C° 0 mm 4 mps 762 mmHg 51%
    13:00 +36°C° 0 mm 4 mps 762 mmHg 50%
    14:00 +36°C° 0.1 mm 5 mps 762 mmHg 50%
    15:00 +36°C° 0.1 mm 5 mps 761 mmHg 51%
    16:00 +36°C° 0.1 mm 5 mps 761 mmHg 52%
    17:00 +35°C° 0 mm 5 mps 761 mmHg 56%
    18:00 +34°C° 0 mm 5 mps 761 mmHg 60%
    19:00 +33°C° 0 mm 4 mps 761 mmHg 64%
    20:00 +32°C° 0.1 mm 4 mps 761 mmHg 67%
    21:00 +31°C° 0.1 mm 3 mps 762 mmHg 70%
    22:00 +30°C° 0.1 mm 3 mps 762 mmHg 73%
    23:00 +30°C° 0 mm 2 mps 762 mmHg 74%

    Tomorrow, 20 June, Thursday

    Time Temperature Precipitation Wind Pressure Humidity
    00:00 +30°C° 0 mm 2 mps 762 mmHg 75%
    01:00 +30°C° 0 mm 2 mps 761 mmHg 76%
    02:00 +30°C° 0 mm 2 mps 761 mmHg 78%
    03:00 +29°C° 0 mm 3 mps 761 mmHg 80%
    04:00 +29°C° 0 mm 3 mps 761 mmHg 82%
    05:00 +29°C° 0 mm 3 mps 761 mmHg 81%
    06:00 +30°C° 0 mm 4 mps 761 mmHg 80%
    07:00 +30°C° 0 mm 4 mps 762 mmHg 79%
    08:00 +32°C° 0 mm 4 mps 762 mmHg 72%
    09:00 +33°C° 0 mm 3 mps 762 mmHg 66%
    10:00 +34°C° 0 mm 3 mps 762 mmHg 59%
    11:00 +35°C° 0 mm 3 mps 762 mmHg 56%
    12:00 +35°C° 0 mm 3 mps 762 mmHg 53%
    13:00 +36°C° 0 mm 4 mps 762 mmHg 50%
    14:00 +36°C° 0 mm 4 mps 762 mmHg 51%
    15:00 +36°C° 0 mm 5 mps 762 mmHg 52%
    16:00 +36°C° 0 mm 5 mps 761 mmHg 52%
    17:00 +35°C° 0.2 mm 5 mps 762 mmHg 57%
    18:00 +34°C° 0.2 mm 4 mps 762 mmHg 62%
    19:00 +33°C° 0.2 mm 4 mps 762 mmHg 66%
    20:00 +33°C° 0.1 mm 4 mps 762 mmHg 68%
    21:00 +31°C° 0.1 mm 3 mps 762 mmHg 71%
    22:00 +31°C° 0.1 mm 3 mps 762 mmHg 73%
    23:00 +30°C° 0 mm 3 mps 762 mmHg 73%

    Day after tomorrow, 21 June, Friday

    Time Temperature Precipitation Wind Pressure Humidity
    00:00 +30°C° 0 mm 2 mps 762 mmHg 74%
    01:00 +30°C° 0 mm 2 mps 762 mmHg 75%
    02:00 +30°C° 0 mm 2 mps 762 mmHg 75%
    03:00 +29°C° 0 mm 2 mps 762 mmHg 76%
    04:00 +29°C° 0 mm 1 mps 762 mmHg 76%
    05:00 +30°C° 0 mm 2 mps 762 mmHg 75%
    06:00 +30°C° 0 mm 2 mps 763 mmHg 74%
    07:00 +30°C° 0 mm 2 mps 763 mmHg 72%
    08:00 +31°C° 0 mm 2 mps 763 mmHg 67%
    09:00 +32°C° 0 mm 2 mps 764 mmHg 62%
    10:00 +34°C° 0 mm 2 mps 764 mmHg 58%
    11:00 +35°C° 0 mm 2 mps 764 mmHg 54%
    12:00 +36°C° 0 mm 3 mps 764 mmHg 51%
    13:00 +36°C° 0 mm 3 mps 764 mmHg 48%
    14:00 +36°C° 0 mm 3 mps 763 mmHg 48%
    15:00 +37°C° 0 mm 3 mps 763 mmHg 48%
    16:00 +37°C° 0 mm 4 mps 763 mmHg 48%
    17:00 +36°C° 0.1 mm 3 mps 763 mmHg 52%
    18:00 +35°C° 0.1 mm 3 mps 763 mmHg 56%
    19:00 +34°C° 0.1 mm 3 mps 763 mmHg 60%
    20:00 +33°C° 0 mm 3 mps 764 mmHg 63%
    21:00 +33°C° 0 mm 3 mps 764 mmHg 65%
    22:00 +31°C° 0 mm 2 mps 764 mmHg 68%
    23:00 +31°C° 0 mm 2 mps 764 mmHg 69%

    22 June, Saturday

    Time Temperature Precipitation Wind Pressure Humidity
    00:00 +31°C° 0 mm 2 mps 764 mmHg 71%
    01:00 +30°C° 0 mm 2 mps 764 mmHg 72%
    02:00 +30°C° 0 mm 2 mps 764 mmHg 74%
    03:00 +30°C° 0 mm 2 mps 763 mmHg 75%
    04:00 +30°C° 0 mm 2 mps 763 mmHg 77%
    05:00 +30°C° 0 mm 1 mps 763 mmHg 75%
    06:00 +30°C° 0 mm 1 mps 764 mmHg 74%
    07:00 +28°C° 0 mm 0 mps 764 mmHg 73%
    08:00 +30°C° 0 mm 0 mps 765 mmHg 67%
    09:00 +33°C° 0 mm 1 mps 765 mmHg 61%
    10:00 +34°C° 0 mm 1 mps 765 mmHg 56%
    11:00 +35°C° 0 mm 1 mps 765 mmHg 52%
    12:00 +36°C° 0 mm 2 mps 765 mmHg 49%
    13:00 +37°C° 0 mm 2 mps 765 mmHg 45%
    14:00 +37°C° 0 mm 3 mps 764 mmHg 46%
    15:00 +37°C° 0 mm 4 mps 764 mmHg 48%
    16:00 +37°C° 0 mm 5 mps 763 mmHg 49%
    17:00 +36°C° 0 mm 4 mps 763 mmHg 53%
    18:00 +35°C° 0 mm 3 mps 763 mmHg 57%
    19:00 +34°C° 0 mm 3 mps 763 mmHg 62%
    20:00 +33°C° 0 mm 3 mps 764 mmHg 64%
    21:00 +33°C° 0 mm 3 mps 764 mmHg 65%
    22:00 +31°C° 0 mm 2 mps 764 mmHg 67%
    23:00 +31°C° 0 mm 2 mps 764 mmHg 68%

    23 June, Sunday

    Time Temperature Precipitation Wind Pressure Humidity
    00:00 +31°C° 0 mm 3 mps 764 mmHg 69%
    01:00 +31°C° 0 mm 3 mps 763 mmHg 71%
    02:00 +30°C° 0 mm 2 mps 763 mmHg 71%
    03:00 +30°C° 0 mm 2 mps 763 mmHg 72%
    04:00 +30°C° 0 mm 1 mps 763 mmHg 72%
    05:00 +30°C° 0 mm 1 mps 763 mmHg 71%
    06:00 +30°C° 0 mm 1 mps 763 mmHg 69%
    07:00 +29°C° 0 mm 0 mps 764 mmHg 68%
    08:00 +30°C° 0 mm 0 mps 764 mmHg 63%
    09:00 +33°C° 0 mm 1 mps 764 mmHg 57%
    10:00 +34°C° 0 mm 1 mps 764 mmHg 52%
    11:00 +36°C° 0 mm 2 mps 764 mmHg 49%
    12:00 +36°C° 0 mm 3 mps 764 mmHg 47%
    13:00 +37°C° 0 mm 3 mps 763 mmHg 44%
    14:00 +37°C° 0 mm 4 mps 763 mmHg 45%
    15:00 +36°C° 0 mm 4 mps 763 mmHg 47%
    16:00 +36°C° 0 mm 5 mps 762 mmHg 48%
    17:00 +35°C° 0.2 mm 4 mps 762 mmHg 53%
    18:00 +34°C° 0.2 mm 4 mps 762 mmHg 57%
    19:00 +33°C° 0.2 mm 4 mps 762 mmHg 61%
    20:00 +33°C° 0.3 mm 3 mps 762 mmHg 63%
    21:00 +31°C° 0.3 mm 2 mps 763 mmHg 65%
    22:00 +31°C° 0.3 mm 2 mps 763 mmHg 68%
    23:00 +31°C° 0 mm 2 mps 763 mmHg 69%

    24 June, Monday

    Time Temperature Precipitation Wind Pressure Humidity
    00:00 +30°C° 0 mm 3 mps 762 mmHg 70%
    01:00 +30°C° 0 mm 3 mps 762 mmHg 71%
    02:00 +30°C° 0 mm 3 mps 761 mmHg 73%
    03:00 +30°C° 0 mm 3 mps 761 mmHg 74%
    04:00 +30°C° 0 mm 3 mps 761 mmHg 75%
    05:00 +30°C° 0 mm 3 mps 761 mmHg 74%
    06:00 +30°C° 0 mm 2 mps 761 mmHg 73%
    07:00 +30°C° 0 mm 2 mps 762 mmHg 72%
    08:00 +31°C° 0 mm 2 mps 762 mmHg 67%
    09:00 +32°C° 0 mm 2 mps 762 mmHg 61%
    10:00 +34°C° 0 mm 2 mps 763 mmHg 55%
    11:00 +35°C° 0 mm 2 mps 763 mmHg 53%
    12:00 +35°C° 0 mm 3 mps 762 mmHg 51%
    13:00 +36°C° 0 mm 4 mps 762 mmHg 48%
    14:00 +36°C° 0 mm 4 mps 762 mmHg 49%
    15:00 +35°C° 0 mm 4 mps 762 mmHg 49%
    16:00 +35°C° 0 mm 5 mps 761 mmHg 50%
    17:00 +34°C° 0 mm 4 mps 761 mmHg 54%
    18:00 +33°C° 0 mm 4 mps 761 mmHg 57%
    19:00 +33°C° 0 mm 4 mps 761 mmHg 61%
    20:00 +31°C° 0 mm 3 mps 761 mmHg 63%
    21:00 +31°C° 0 mm 3 mps 762 mmHg 65%
    22:00 +30°C° 0 mm 3 mps 762 mmHg 68%
    23:00 +30°C° 0 mm 3 mps 762 mmHg 70%
    Show more